Location: Pinawa
(50.1500°N, 95.8830°W)
Time: 20:56:04
(UTC-05:00)

Amateur Radio Satellites - All Passes

Search period start: 28 May 2016 20:26
Search period end: 29 May 2016 20:26
Location: Pinawa, 50.1500°N, 95.8830°W

Satellite Date Start Highest point End Downlink Frequencies (MHz)
Time Altitude Azimuth
YUBILEINY 28 May 20:26:13 20:29:50 13° 319° (NW) 20:33:28 435.215
AUBIESAT-1 28 May 20:26:42 20:30:39 55° 253° (WSW) 20:34:20 437.475
PCSat 28 May 20:29:19 20:33:23 22° 252° (WSW) 20:37:25 145.827
HO-68 28 May 20:30:23 20:37:34 86° 254° (WSW) 20:44:47 435.675
RS-15 28 May 20:31:29 20:42:53 56° 328° (NNW) 20:54:54 29.354- 29.394
M-CUBED/EXP-1 PRIME 28 May 20:34:39 20:38:29 38° 255° (WSW) 20:42:03 437.505
Cosmos 2504 28 May 20:37:40 20:43:21 23° 304° (NW) 20:49:19 435.465 / 435.565
CINEMA 3 28 May 20:38:16 20:42:58 80° 258° (WSW) 20:47:28 145.822/145.860
BEESAT 3 28 May 20:40:57 20:44:49 51° 236° (SW) 20:48:39 437.485
CUTE 1.7 + AOD 2 28 May 20:43:38 20:47:51 75° 258° (WSW) 20:52:06 437.475
AIST 2 28 May 20:50:07 20:53:17 20° 29° (NNE) 20:56:27 435.215
Oscar 11 28 May 20:52:55 20:56:39 30° 65° (ENE) 21:00:25 145.826/435.025
PRISM 28 May 21:00:31 21:03:37 20° 92° (E) 21:06:41 437.425
COMPASS 1 28 May 21:00:48 21:04:57 89° 281° (WNW) 21:09:10 437.405
AAUSAT CUBESAT 2 28 May 21:02:07 21:06:15 78° 75° (ENE) 21:10:26 437.432
ZACube-1 28 May 21:09:24 21:13:16 37° 68° (ENE) 21:17:06 437.345
HUMSAT D 28 May 21:09:38 21:11:07 12° 56° (NE) 21:12:36 437.325/437.525
AIST 1 28 May 21:11:10 21:14:53 27° 89° (E) 21:18:38
GOMX 1 28 May 21:16:10 21:17:08 10° 278° (W) 21:18:05 467.674
CUBEBUG 2 28 May 21:19:50 21:24:11 88° 259° (W) 21:28:26 437.445
O/OREOS (USA 219) 28 May 21:21:11 21:22:18 11° 263° (W) 21:23:24 437.305
DELFI C3 28 May 21:22:43 21:26:06 28° 66° (ENE) 21:29:33 145.870
Cosmos 2499 28 May 21:23:36 21:27:44 16° 72° (ENE) 21:32:00 435.465 / 435.565
CUSAT 1 28 May 21:34:46 21:41:15 26° 55° (NE) 21:47:02 437.405
DANDE 28 May 21:39:24 21:45:18 20° 49° (NE) 21:51:01 436.750
STRAND 1 28 May 21:41:24 21:46:17 44° 294° (WNW) 21:51:10 437.568
UWE-3 28 May 21:45:52 21:50:07 68° 258° (WSW) 21:54:19 435.000/436.395/437.385
FUNcube-1 28 May 21:46:25 21:50:36 81° 76° (ENE) 21:54:47 145.935
BEESAT 2 28 May 21:46:46 21:49:53 22° 244° (WSW) 21:52:59 435.950
SEEDS 28 May 21:53:51 21:57:03 21° 268° (W) 22:00:16 437.485
CANX-2 28 May 21:54:46 21:57:08 15° 272° (W) 21:59:32 2200.000
ISS 28 May 21:56:04 21:58:37 21° 143° (SE) 22:01:09 145.825
GONETS M04 28 May 22:15:05 22:23:36 58° 91° (E) 22:32:06
CINEMA 3 28 May 22:19:43 22:20:47 11° 274° (W) 22:21:52 145.822/145.860
HO-68 28 May 22:21:25 22:26:19 19° 273° (W) 22:31:16 435.675
AIST 2 28 May 22:28:11 22:32:22 87° 55° (NE) 22:36:31 435.215
Oscar 11 28 May 22:28:49 22:32:44 34° 264° (W) 22:36:41 145.826/435.025
TIGRISAT 28 May 22:31:24 22:32:29 11° 86° (E) 22:33:34 435.000
PRISM 28 May 22:35:08 22:39:12 49° 291° (WNW) 22:43:13 437.425
COMPASS 1 28 May 22:40:20 22:41:11 11° 274° (W) 22:42:03 437.405
AAUSAT CUBESAT 2 28 May 22:40:31 22:42:18 12° 273° (W) 22:44:06 437.432
HUMSAT D 28 May 22:42:01 22:46:05 85° 74° (ENE) 22:50:12 437.325/437.525
ESTCUBE 1 28 May 22:43:52 22:47:29 24° 62° (ENE) 22:51:07 437.505/2401.250
ZACube-1 28 May 22:46:09 22:49:40 25° 266° (W) 22:53:10 437.345
RS-15 28 May 22:47:24 22:58:30 41° 1° (N) 23:09:56 29.354- 29.394
AIST 1 28 May 22:48:19 22:52:23 35° 288° (WNW) 22:56:28
CUBEBUG 1 28 May 22:50:20 22:53:33 20° 60° (ENE) 22:56:47 437.445
DX 1 28 May 22:51:13 22:54:09 18° 58° (ENE) 22:57:06 434.975-435.025
DELFI C3 28 May 22:57:21 23:00:55 31° 264° (W) 23:04:32 145.870
VELOX 1 28 May 23:00:23 23:03:58 24° 62° (ENE) 23:07:33 145.980
CUBEBUG 2 28 May 23:00:27 23:01:27 11° 274° (W) 23:02:27 437.445
ANTELSAT 28 May 23:03:31 23:07:01 24° 93° (E) 23:10:32 437.575/2403.000
PHONESAT 2.4 28 May 23:08:17 23:08:56 10° 164° (SSE) 23:09:35 2401.200-2431.200
Cosmos 2499 28 May 23:11:57 23:19:14 73° 95° (E) 23:27:10 435.465 / 435.565
SPROUT 28 May 23:12:23 23:14:36 14° 57° (ENE) 23:16:50 437.525
50 SAT 28 May 23:15:44 23:18:55 29° 67° (ENE) 23:22:08 437.505
CUSAT 1 28 May 23:16:33 23:24:32 88° 259° (WSW) 23:31:13 437.405
DANDE 28 May 23:21:31 23:29:57 64° 72° (ENE) 23:37:44 436.750
FUNcube-1 28 May 23:25:49 23:27:26 12° 273° (W) 23:29:03 145.935
ISS 28 May 23:31:27 23:34:43 80° 161° (SSE) 23:38:00 145.825
AISAT 28 May 23:35:44 23:40:04 50° 69° (ENE) 23:44:24 437.250
UKube-1 28 May 23:36:39 23:40:37 35° 66° (ENE) 23:44:35 .
NANOSAT C BR1 28 May 23:45:59 23:47:49 13° 88° (E) 23:49:38 145.865
UNISAT 6 28 May 23:58:27 00:02:46 80° 105° (ESE) 00:07:08 437.425
TIGRISAT 29 May 00:05:33 00:09:51 88° 104° (ESE) 00:14:12 435.000
AIST 2 29 May 00:08:08 00:10:15 14° 249° (WSW) 00:12:22 435.215
GONETS M04 29 May 00:12:39 00:20:48 41° 294° (WNW) 00:28:58
ESTCUBE 1 29 May 00:19:39 00:24:02 49° 261° (W) 00:28:28 437.505/2401.250
HUMSAT D 29 May 00:21:16 00:22:21 11° 274° (W) 00:23:25 437.325/437.525
DUCHIFAT 1 29 May 00:22:35 00:26:09 27° 94° (E) 00:29:42 145.980
CUBEBUG 1 29 May 00:25:05 00:29:28 59° 259° (W) 00:33:52 437.445
DX 1 29 May 00:25:32 00:29:54 67° 257° (WSW) 00:34:17 434.975-435.025
BUGSAT 1 29 May 00:35:29 00:38:16 18° 91° (E) 00:41:03 437.445
VELOX 1 29 May 00:35:53 00:40:12 47° 261° (W) 00:44:32 145.980
ANTELSAT 29 May 00:39:52 00:43:56 42° 291° (WNW) 00:48:02 437.575/2403.000
PHONESAT 2.4 29 May 00:43:04 00:44:54 15° 181° (S) 00:46:44 2401.200-2431.200
SPROUT 29 May 00:45:39 00:49:58 86° 259° (W) 00:54:17 437.525
50 SAT 29 May 00:49:36 00:52:40 25° 265° (W) 00:55:46 437.505
SWISSCUBE 29 May 00:53:04 00:55:17 13° 53° (NE) 00:57:31 437.505
ITUPSAT 1 29 May 00:59:51 01:02:12 14° 53° (NE) 01:04:33 437.325
CUSAT 1 29 May 00:59:57 01:05:28 22° 282° (WNW) 01:10:25 437.405
POPSAT HIP 1 29 May 01:02:00 01:06:13 72° 103° (ESE) 01:10:24 437.405
RS-15 29 May 01:02:02 01:14:03 58° 33° (NNE) 01:26:12 29.354- 29.394
QB50P1 29 May 01:02:15 01:06:29 73° 103° (ESE) 01:10:40 145.935-145.965
TISAT 1 29 May 01:04:46 01:08:50 48° 70° (ENE) 01:12:54 437.305
DANDE 29 May 01:04:54 01:12:26 38° 274° (W) 01:19:27 436.750
QB50P2 29 May 01:05:04 01:09:19 82° 104° (ESE) 01:13:32 145.880/145.840
Cosmos 2499 29 May 01:06:55 01:13:14 29° 300° (WNW) 01:20:01 435.465 / 435.565
POLYITAN 1 29 May 01:07:33 01:11:47 84° 105° (ESE) 01:15:58 437.675
ISS 29 May 01:08:00 01:11:16 64° 1° (N) 01:14:32 145.825
SO-50 29 May 01:11:44 01:16:31 55° 124° (SE) 01:21:18 436.795
UKube-1 29 May 01:12:56 01:16:43 29° 265° (W) 01:20:31 .
AISAT 29 May 01:13:22 01:16:49 22° 268° (W) 01:20:17 437.250
JAS-2 29 May 01:19:49 01:26:18 30° 89° (E) 01:32:12 435.910
NANOSAT C BR1 29 May 01:19:54 01:24:07 78° 287° (WNW) 01:28:17 145.865
BEESAT 29 May 01:21:07 01:24:33 20° 58° (ENE) 01:27:59 436.000
UNISAT 6 29 May 01:36:33 01:38:57 15° 302° (WNW) 01:41:23 437.425
TIGRISAT 29 May 01:43:49 01:45:57 14° 303° (WNW) 01:48:05 435.000
DUCHIFAT 1 29 May 01:58:06 02:01:56 35° 293° (WNW) 02:05:44 145.980
BUGSAT 1 29 May 02:10:02 02:13:58 50° 290° (WNW) 02:17:52 437.445
Oscar 19 29 May 02:15:58 02:20:34 32° 95° (E) 02:25:08 437.125/150
GONETS M04 29 May 02:18:15 02:20:49 11° 322° (NW) 02:23:25
SPROUT 29 May 02:25:41 02:26:36 11° 274° (W) 02:27:32 437.525
SWISSCUBE 29 May 02:27:33 02:32:17 75° 72° (ENE) 02:37:05 437.505
YUBILEINY 29 May 02:28:49 02:36:33 33° 62° (ENE) 02:44:15 435.215
ITUPSAT 1 29 May 02:34:30 02:39:16 77° 73° (ENE) 02:44:04 437.325
Cosmos 2504 29 May 02:35:36 02:39:17 13° 45° (NE) 02:43:03 435.465 / 435.565
POPSAT HIP 1 29 May 02:39:00 02:41:31 16° 302° (WNW) 02:44:02 437.405
QB50P1 29 May 02:39:17 02:41:45 15° 302° (WNW) 02:44:13 145.935-145.965
TISAT 1 29 May 02:41:35 02:44:45 20° 268° (W) 02:47:55 437.305
QB50P2 29 May 02:42:20 02:44:33 14° 303° (WNW) 02:46:46 145.880/145.840
ISS 29 May 02:44:31 02:47:47 69° 201° (SSW) 02:51:02 145.825
POLYITAN 1 29 May 02:44:51 02:47:00 14° 303° (WNW) 02:49:09 437.675
Gurwin Techsat 1B 29 May 02:50:29 02:55:07 29° 94° (E) 02:59:43 435.225
SO-50 29 May 02:52:45 02:57:16 35° 325° (NW) 03:01:44 436.795
BEESAT 29 May 02:57:09 03:01:53 67° 257° (WSW) 03:06:40 436.000
NANOSAT C BR1 29 May 02:57:46 02:59:09 11° 305° (NW) 03:00:30 145.865
ITAMSAT 1 29 May 03:01:47 03:04:50 15° 87° (E) 03:07:53 435.822/435.867
JAS-2 29 May 03:04:23 03:11:57 68° 291° (WNW) 03:18:42 435.910
RS-15 29 May 03:15:01 03:27:05 66° 241° (WSW) 03:39:09 29.354- 29.394
KKS-1 29 May 03:28:34 03:32:43 39° 67° (ENE) 03:36:54 437.445
Cosmos 2491 29 May 03:31:33 03:38:46 30° 80° (E) 03:45:58 435.465 / 435.565
MOZHAYETS 4 29 May 03:54:47 03:59:11 51° 70° (ENE) 04:03:38
Oscar 19 29 May 03:55:09 04:00:01 43° 294° (WNW) 04:04:51 437.125/150
STARS 29 May 04:00:02 04:04:12 43° 68° (ENE) 04:08:22 437.465
SWISSCUBE 29 May 04:07:42 04:10:39 16° 271° (W) 04:13:37 437.505
ITUPSAT 1 29 May 04:14:51 04:17:42 16° 272° (W) 04:20:33 437.325
ISS 29 May 04:21:35 04:23:48 17° 219° (SW) 04:26:00 145.825
YUBILEINY 29 May 04:25:27 04:34:08 72° 266° (W) 04:42:52 435.215
Cosmos 2504 29 May 04:27:07 04:35:08 48° 70° (ENE) 04:43:33 435.465 / 435.565
AO-7 29 May 04:28:26 04:36:01 36° 96° (E) 04:43:33 29.400- 29.500
Gurwin Techsat 1B 29 May 04:30:11 04:35:17 48° 293° (WNW) 04:40:23 435.225
SO-50 29 May 04:36:04 04:39:07 16° 348° (NNW) 04:42:08 436.795
ITAMSAT 1 29 May 04:39:45 04:45:01 87° 284° (WNW) 04:50:15 435.822/435.867
JAS-2 29 May 04:50:30 04:55:34 20° 314° (NW) 05:00:22 435.910
KKS-1 29 May 05:05:35 05:09:24 27° 265° (W) 05:13:14 437.445
CUBESAT XI-V 29 May 05:24:17 05:28:49 51° 70° (ENE) 05:33:23 437.345
Cosmos 2491 29 May 05:25:58 05:34:49 76° 282° (WNW) 05:43:41 435.465 / 435.565
RS-15 29 May 05:29:30 05:37:05 19° 265° (W) 05:44:41 29.354- 29.394
MOZHAYETS 4 29 May 05:33:07 05:36:39 22° 268° (W) 05:40:13
STARS 29 May 05:37:07 05:40:44 24° 266° (W) 05:44:22 437.465
STRAND 1 29 May 05:47:04 05:49:27 13° 51° (NE) 05:51:51 437.568
Gurwin Techsat 1B 29 May 06:13:28 06:14:03 10° 313° (NW) 06:14:38 435.225
HORYU 2 29 May 06:17:36 06:22:03 67° 103° (ESE) 06:26:27 437.375
SO-50 29 May 06:18:24 06:21:27 16° 13° (NNE) 06:24:28 436.795
ITAMSAT 1 29 May 06:20:30 06:23:48 17° 306° (NW) 06:27:06 435.822/435.867
Cosmos 2504 29 May 06:20:40 06:28:36 49° 271° (W) 06:36:55 435.465 / 435.565
AO-7 29 May 06:21:02 06:29:18 65° 297° (WNW) 06:37:32 29.400- 29.500
YUBILEINY 29 May 06:24:12 06:29:20 17° 288° (WNW) 06:34:29 435.215
GONETS M04 29 May 06:25:56 06:27:06 10° 35° (NE) 06:28:15
CUTE-I 29 May 06:27:46 06:30:51 15° 87° (E) 06:33:54 437.470
LilacSat-2 29 May 06:35:19 06:36:45 12° 88° (E) 06:38:12 437.200
AO-85 29 May 06:37:37 06:42:54 52° 123° (ESE) 06:48:02 145.980
CUBESAT XI-V 29 May 07:02:47 07:06:29 23° 269° (W) 07:10:13 437.345
Cosmos 2499 29 May 07:06:07 07:08:12 11° 39° (NE) 07:10:19 435.465 / 435.565
NOAA 15 29 May 07:09:46 07:14:52 44° 99° (E) 07:19:54 137.62
AIST 1 29 May 07:14:06 07:16:07 13° 61° (ENE) 07:18:06
BRITE-PL 29 May 07:14:25 07:19:21 42° 96° (E) 07:23:52 437.365/2234.400
Cubesat XI-IV 29 May 07:20:40 07:25:42 40° 97° (E) 07:30:43 437.490
STRAND 1 29 May 07:22:41 07:27:44 68° 71° (ENE) 07:32:50 437.568
Cosmos 2491 29 May 07:27:00 07:33:25 22° 308° (NW) 07:39:51 435.465 / 435.565
GOMX 1 29 May 07:30:45 07:34:50 28° 92° (E) 07:38:40 467.674
NOAA 18 29 May 07:32:42 07:38:06 56° 102° (ESE) 07:43:30 137.9125
PRISM 29 May 07:54:07 07:57:39 27° 64° (ENE) 08:01:12 437.425
HO-68 29 May 07:54:57 07:58:35 14° 83° (E) 08:02:12 435.675
HORYU 2 29 May 07:55:09 07:58:09 18° 302° (WNW) 08:01:09 437.375
SO-50 29 May 07:58:48 08:03:16 37° 36° (NE) 08:07:35 436.795
CUTE-I 29 May 08:06:16 08:11:40 90° 106° (ESE) 08:17:03 437.470
LilacSat-2 29 May 08:07:46 08:11:32 70° 286° (WNW) 08:15:18 437.200
DOVE 4 29 May 08:10:52 08:14:50 32° 94° (E) 08:18:38 437.250
AO-7 29 May 08:14:47 08:20:39 22° 320° (NW) 08:26:31 29.400- 29.500
Cosmos 2504 29 May 08:18:30 08:19:57 11° 293° (WNW) 08:21:25 435.465 / 435.565
AO-85 29 May 08:18:31 08:23:37 40° 322° (NW) 08:28:30 145.980
GONETS M04 29 May 08:19:23 08:27:21 37° 64° (ENE) 08:35:14
CUTE 1.7 + AOD 2 29 May 08:25:08 08:27:32 15° 88° (E) 08:29:55 437.475
CINEMA 3 29 May 08:29:25 08:32:01 16° 89° (E) 08:34:34 145.822/145.860
COMPASS 1 29 May 08:41:11 08:42:28 11° 86° (E) 08:43:46 437.405
NOAA 15 29 May 08:49:50 08:54:31 33° 298° (WNW) 08:59:12 137.62
AIST 1 29 May 08:50:01 08:54:25 87° 258° (WSW) 08:58:44
BRITE-PL 29 May 08:53:08 08:57:41 31° 297° (WNW) 09:01:56 437.365/2234.400
Cosmos 2499 29 May 08:56:26 09:04:19 39° 66° (ENE) 09:12:27 435.465 / 435.565
Cubesat XI-IV 29 May 09:00:53 09:05:45 37° 296° (WNW) 09:10:38 437.490
STRAND 1 29 May 09:03:47 09:07:25 19° 270° (W) 09:11:06 437.568
CUBEBUG 2 29 May 09:07:20 09:09:22 13° 88° (E) 09:11:24 437.445
GOMX 1 29 May 09:08:39 09:13:04 39° 294° (WNW) 09:17:12 467.674
NOAA 18 29 May 09:13:54 09:18:29 28° 301° (WNW) 09:23:05 137.9125
UNISAT 6 29 May 09:26:58 09:29:45 17° 59° (ENE) 09:32:31 437.425
PRISM 29 May 09:29:01 09:32:51 36° 262° (W) 09:36:45 437.425
UWE-3 29 May 09:31:34 09:34:16 17° 90° (E) 09:36:59 435.000/436.395/437.385
SEEDS 29 May 09:31:44 09:35:52 47° 99° (E) 09:39:59 437.485
FUNcube-1 29 May 09:31:56 09:32:59 11° 86° (E) 09:34:02 145.935
PCSat 29 May 09:32:11 09:36:32 25° 110° (ESE) 09:40:55 145.827
CANX-2 29 May 09:32:38 09:36:56 73° 103° (ESE) 09:41:13 2200.000
TIGRISAT 29 May 09:33:40 09:36:38 18° 60° (ENE) 09:39:34 435.000
AUBIESAT-1 29 May 09:35:27 09:38:38 41° 105° (ESE) 09:41:47 437.475
SO-50 29 May 09:39:21 09:43:54 47° 238° (WSW) 09:48:17 436.795
HO-68 29 May 09:40:30 09:47:41 68° 104° (ESE) 09:54:50 435.675
M-CUBED/EXP-1 PRIME 29 May 09:43:44 09:47:02 65° 109° (ESE) 09:50:16 437.505
CUTE-I 29 May 09:47:29 09:51:02 18° 306° (NW) 09:54:35 437.470
DOVE 4 29 May 09:48:38 09:52:34 31° 295° (WNW) 09:56:18 437.250
O/OREOS (USA 219) 29 May 09:55:53 10:00:15 46° 110° (ESE) 10:04:36 437.305
CUTE 1.7 + AOD 2 29 May 09:59:35 10:03:52 70° 287° (WNW) 10:08:08 437.475
AO-85 29 May 10:01:51 10:05:25 18° 345° (NNW) 10:08:52 145.980
CINEMA 3 29 May 10:05:28 10:09:36 59° 288° (WNW) 10:13:40 145.822/145.860
ANTELSAT 29 May 10:06:40 10:10:37 36° 67° (ENE) 10:14:33 437.575/2403.000
Oscar 11 29 May 10:10:59 10:14:53 31° 95° (E) 10:18:46 145.826/435.025
COMPASS 1 29 May 10:14:25 10:18:40 88° 291° (WNW) 10:22:54 437.405
AAUSAT CUBESAT 2 29 May 10:15:06 10:19:20 77° 103° (ESE) 10:23:31 437.432
GONETS M04 29 May 10:16:11 10:24:44 63° 268° (W) 10:33:13
HUMSAT D 29 May 10:23:42 10:24:02 10° 86° (E) 10:24:22 437.325/437.525
POPSAT HIP 1 29 May 10:25:31 10:27:41 14° 57° (ENE) 10:29:51 437.405
QB50P1 29 May 10:25:40 10:27:53 14° 57° (ENE) 10:30:06 145.935-145.965
QB50P2 29 May 10:28:19 10:30:49 15° 58° (ENE) 10:33:19 145.880/145.840
ZACube-1 29 May 10:28:43 10:32:42 41° 98° (E) 10:36:43 437.345
DELFI C3 29 May 10:30:16 10:33:35 24° 93° (E) 10:36:53 145.870
AIST 1 29 May 10:30:29 10:31:14 10° 280° (W) 10:31:58
POLYITAN 1 29 May 10:30:45 10:33:16 16° 58° (ENE) 10:35:48 437.675
NANOSAT C BR1 29 May 10:42:08 10:45:04 19° 60° (ENE) 10:48:01 145.865
CUBEBUG 2 29 May 10:42:21 10:46:31 73° 286° (WNW) 10:50:43 437.445
CUSAT 1 29 May 10:43:34 10:48:04 18° 75° (ENE) 10:52:55 437.405
Cosmos 2499 29 May 10:49:30 10:57:53 62° 268° (W) 11:06:33 435.465 / 435.565
UNISAT 6 29 May 11:01:43 11:06:01 67° 257° (WSW) 11:10:19 437.425
FUNcube-1 29 May 11:05:40 11:09:52 90° 266° (W) 11:14:08 145.935
UWE-3 29 May 11:07:01 11:11:07 58° 288° (WNW) 11:15:16 435.000/436.395/437.385
SEEDS 29 May 11:08:00 11:11:19 22° 297° (WNW) 11:14:37 437.485
TIGRISAT 29 May 11:08:39 11:12:56 60° 259° (W) 11:17:11 435.000
CANX-2 29 May 11:09:41 11:12:18 16° 301° (WNW) 11:14:55 2200.000
AUBIESAT-1 29 May 11:10:42 11:12:56 17° 304° (NW) 11:15:08 437.475
PCSat 29 May 11:14:06 11:19:30 66° 309° (NW) 11:24:57 145.827
DUCHIFAT 1 29 May 11:18:39 11:22:30 36° 68° (ENE) 11:26:23 145.980
M-CUBED/EXP-1 PRIME 29 May 11:19:50 11:21:11 12° 308° (NW) 11:22:32 437.505
HO-68 29 May 11:28:47 11:34:59 33° 305° (NW) 11:41:10 435.675
BUGSAT 1 29 May 11:29:20 11:32:45 25° 64° (ENE) 11:36:08 437.445
O/OREOS (USA 219) 29 May 11:35:56 11:39:51 28° 310° (NW) 11:43:47 437.305
JAS-2 29 May 11:36:15 11:42:29 28° 53° (NE) 11:48:50 435.910
CUTE 1.7 + AOD 2 29 May 11:37:57 11:38:56 11° 306° (NW) 11:39:54 437.475
BEESAT 2 29 May 11:42:58 11:45:52 20° 115° (ESE) 11:48:47 435.950
ANTELSAT 29 May 11:43:44 11:47:26 27° 265° (W) 11:51:07 437.575/2403.000
AO-85 29 May 11:44:38 11:47:49 16° 9° (N) 11:50:51 145.980
Oscar 11 29 May 11:47:07 11:51:01 33° 294° (WNW) 11:54:54 145.826/435.025
COMPASS 1 29 May 11:51:42 11:53:36 13° 303° (WNW) 11:55:29 437.405
AAUSAT CUBESAT 2 29 May 11:51:56 11:54:17 15° 302° (WNW) 11:56:38 437.432
HUMSAT D 29 May 11:56:08 12:00:19 86° 105° (ESE) 12:04:32 437.325/437.525
POPSAT HIP 1 29 May 11:58:38 12:02:54 85° 258° (WSW) 12:07:08 437.405
QB50P1 29 May 11:58:50 12:03:05 83° 256° (WSW) 12:07:21 145.935-145.965
Oscar 19 29 May 12:01:08 12:03:50 14° 52° (NE) 12:06:32 437.125/150
QB50P2 29 May 12:01:52 12:06:06 74° 256° (WSW) 12:10:22 145.880/145.840
POLYITAN 1 29 May 12:04:22 12:08:35 73° 257° (WSW) 12:12:50 437.675
DELFI C3 29 May 12:04:50 12:08:34 37° 292° (WNW) 12:12:18 145.870
ZACube-1 29 May 12:05:26 12:08:50 24° 296° (WNW) 12:12:15 437.345
ESTCUBE 1 29 May 12:07:40 12:11:28 25° 93° (E) 12:15:15 437.505/2401.250
CUBEBUG 1 29 May 12:09:47 12:12:55 19° 91° (E) 12:16:00 437.445
DX 1 29 May 12:10:15 12:12:50 15° 89° (E) 12:15:23 434.975-435.025
BEESAT 3 29 May 12:12:41 12:16:34 58° 125° (SE) 12:20:29 437.485
50 SAT 29 May 12:14:13 12:17:00 20° 93° (E) 12:19:47 437.505
GONETS M04 29 May 12:15:31 12:19:40 14° 291° (WNW) 12:23:47
NANOSAT C BR1 29 May 12:16:16 12:20:26 58° 259° (W) 12:24:37 145.865
VELOX 1 29 May 12:21:39 12:25:13 23° 93° (E) 12:28:45 145.980
CUBEBUG 2 29 May 12:21:42 12:22:25 10° 305° (NW) 12:23:08 437.445
CUSAT 1 29 May 12:21:55 12:28:43 74° 97° (E) 12:36:42 437.405
SPROUT 29 May 12:28:54 12:30:35 12° 87° (E) 12:32:15 437.525
DANDE 29 May 12:34:26 12:40:14 49° 90° (E) 12:47:32 436.750
Gurwin Techsat 1B 29 May 12:39:28 12:42:13 14° 51° (NE) 12:44:59 435.225
FUNcube-1 29 May 12:43:39 12:45:32 13° 303° (WNW) 12:47:23 145.935
Cosmos 2499 29 May 12:45:00 12:49:18 15° 289° (WNW) 12:53:40 435.465 / 435.565
DUCHIFAT 1 29 May 12:54:44 12:58:18 26° 266° (W) 13:01:52 145.980
UKube-1 29 May 12:54:50 12:58:45 32° 96° (E) 13:02:39 .
AISAT 29 May 12:57:32 13:01:53 52° 100° (E) 13:06:11 437.250
PCSat 29 May 12:59:52 13:03:57 21° 333° (NNW) 13:08:02 145.827
BUGSAT 1 29 May 13:04:01 13:07:58 40° 262° (W) 13:11:54 437.445
JAS-2 29 May 13:19:01 13:26:36 88° 254° (WSW) 13:34:34 435.910
BEESAT 2 29 May 13:19:25 13:23:21 59° 314° (NW) 13:27:20 435.950
AO-85 29 May 13:25:19 13:29:48 33° 34° (NNE) 13:33:55 145.980
HUMSAT D 29 May 13:33:22 13:35:23 13° 302° (WNW) 13:37:23 437.325/437.525
Cosmos 2491 29 May 13:34:32 13:40:44 20° 51° (NE) 13:46:52 435.465 / 435.565
Oscar 19 29 May 13:37:07 13:42:18 72° 71° (ENE) 13:47:30 437.125/150
POPSAT HIP 1 29 May 13:38:51 13:39:22 10° 274° (W) 13:39:53 437.405
AO-7 29 May 13:42:52 13:48:57 23° 41° (NE) 13:55:04 29.400- 29.500
ESTCUBE 1 29 May 13:44:08 13:48:27 43° 292° (WNW) 13:52:45 437.505/2401.250
DX 1 29 May 13:45:09 13:49:31 69° 288° (WNW) 13:53:49 434.975-435.025
CUBEBUG 1 29 May 13:45:15 13:49:34 55° 289° (WNW) 13:53:49 437.445
50 SAT 29 May 13:47:24 13:50:54 39° 291° (WNW) 13:54:23 437.505
BEESAT 3 29 May 13:51:13 13:54:33 25° 326° (NW) 13:57:55 437.485
VELOX 1 29 May 13:57:40 14:01:54 45° 292° (WNW) 14:06:07 145.980
SPROUT 29 May 14:02:51 14:07:09 83° 284° (WNW) 14:11:24 437.525
CUSAT 1 29 May 14:05:26 14:11:41 32° 301° (WNW) 14:18:40 437.405
AIST 2 29 May 14:07:58 14:11:49 38° 121° (ESE) 14:15:40 435.215
Gurwin Techsat 1B 29 May 14:16:00 14:21:17 70° 71° (ENE) 14:26:36 435.225
DANDE 29 May 14:17:24 14:23:18 41° 296° (WNW) 14:30:36 436.750
TISAT 1 29 May 14:19:31 14:23:32 44° 99° (E) 14:27:31 437.305
ITAMSAT 1 29 May 14:23:38 14:28:22 38° 64° (ENE) 14:33:09 435.822/435.867
SWISSCUBE 29 May 14:24:34 14:26:59 14° 87° (E) 14:29:25 437.505
UKube-1 29 May 14:30:57 14:34:47 31° 295° (WNW) 14:38:36 .
ITUPSAT 1 29 May 14:31:43 14:34:19 14° 88° (E) 14:36:53 437.325
AISAT 29 May 14:34:39 14:38:03 22° 299° (WNW) 14:41:26 437.250
PCSat 29 May 14:46:57 14:49:30 13° 359° (N) 14:52:03 145.827
BEESAT 29 May 14:53:03 14:56:49 22° 92° (E) 15:00:33 436.000
BEESAT 2 29 May 14:59:27 15:02:00 16° 336° (NNW) 15:04:34 435.950
AO-85 29 May 15:05:52 15:10:34 55° 237° (WSW) 15:14:49 145.980
JAS-2 29 May 15:06:52 15:12:38 23° 275° (W) 15:18:37 435.910
Oscar 19 29 May 15:18:33 15:22:10 19° 271° (W) 15:25:49 437.125/150
DX 1 29 May 15:23:43 15:24:53 11° 307° (NW) 15:26:05 434.975-435.025
Cosmos 2491 29 May 15:30:38 15:39:26 72° 76° (ENE) 15:48:09 435.465 / 435.565
AO-7 29 May 15:32:13 15:40:26 71° 64° (ENE) 15:48:44 29.400- 29.500
BEESAT 3 29 May 15:32:29 15:33:34 11° 349° (N) 15:34:40 437.485
YUBILEINY 29 May 15:37:03 15:44:11 30° 80° (E) 15:51:20 435.215
RS-15 29 May 15:40:06 15:44:45 13° 90° (E) 15:49:27 29.354- 29.394
SPROUT 29 May 15:40:39 15:42:25 12° 304° (NW) 15:44:10 437.525
HORYU 2 29 May 15:45:32 15:48:18 17° 57° (ENE) 15:51:04 437.375
AIST 2 29 May 15:46:31 15:50:20 35° 321° (NW) 15:54:12 435.215
TISAT 1 29 May 15:55:41 15:58:58 23° 298° (WNW) 16:02:14 437.305
Gurwin Techsat 1B 29 May 15:57:56 16:01:46 20° 270° (W) 16:05:38 435.225
SWISSCUBE 29 May 16:00:38 16:05:28 88° 286° (WNW) 16:10:17 437.505
ITAMSAT 1 29 May 16:03:06 16:07:52 37° 263° (W) 16:12:41 435.822/435.867
DANDE 29 May 16:06:01 16:08:48 12° 322° (NW) 16:11:44 436.750
ITUPSAT 1 29 May 16:07:57 16:12:48 85° 286° (WNW) 16:17:38 437.325
BEESAT 29 May 16:30:14 16:34:55 54° 291° (WNW) 16:39:35 436.000
PCSat 29 May 16:31:09 16:35:05 20° 25° (NNE) 16:39:01 145.827
KKS-1 29 May 16:51:02 16:55:14 40° 98° (E) 16:59:24 437.445
BRITE-PL 29 May 16:52:58 16:56:26 17° 54° (NE) 16:59:51 437.365/2234.400
NOAA 15 29 May 16:56:39 17:00:32 21° 56° (NE) 17:04:26 137.62
GOMX 1 29 May 17:08:42 17:10:16 11° 51° (NE) 17:11:49 467.674
Cubesat XI-IV 29 May 17:09:33 17:13:14 19° 55° (NE) 17:16:54 437.490
BEESAT 3 29 May 17:11:41 17:13:01 11° 13° (NNE) 17:14:20 437.485
Cosmos 2504 29 May 17:12:43 17:18:52 30° 81° (E) 17:25:20 435.465 / 435.565
HORYU 2 29 May 17:19:56 17:24:21 75° 257° (WSW) 17:28:47 437.375
STARS 29 May 17:20:50 17:25:01 42° 99° (E) 17:29:09 437.465
MOZHAYETS 4 29 May 17:21:53 17:26:30 64° 102° (ESE) 17:31:06
LilacSat-2 29 May 17:22:05 17:23:51 13° 59° (ENE) 17:25:38 437.200
NOAA 18 29 May 17:24:24 17:29:04 30° 60° (ENE) 17:33:45 137.9125
AO-7 29 May 17:26:40 17:33:53 32° 266° (W) 17:41:10 29.400- 29.500
AIST 2 29 May 17:27:56 17:29:59 13° 344° (NNW) 17:32:02 435.215
Cosmos 2491 29 May 17:28:17 17:35:34 31° 280° (W) 17:42:49 435.465 / 435.565
YUBILEINY 29 May 17:31:33 17:40:14 74° 282° (WNW) 17:48:59 435.215
SWISSCUBE 29 May 17:39:49 17:42:36 15° 305° (NW) 17:45:22 437.505
RS-15 29 May 17:43:08 17:54:03 55° 115° (ESE) 18:05:32 29.354- 29.394
DOVE 4 29 May 17:46:36 17:47:59 11° 53° (NE) 17:49:23 437.250
ITUPSAT 1 29 May 17:47:15 17:49:56 15° 306° (NW) 17:52:38 437.325
CUTE-I 29 May 17:53:30 17:58:23 39° 64° (ENE) 18:03:18 437.470
PCSat 29 May 18:14:14 18:19:38 59° 49° (NE) 18:24:59 145.827
BEESAT 2 29 May 18:18:27 18:20:58 16° 24° (NNE) 18:23:29 435.950
O/OREOS (USA 219) 29 May 18:22:08 18:26:07 30° 51° (NE) 18:30:05 437.305
KKS-1 29 May 18:27:55 18:31:40 27° 297° (WNW) 18:35:24 437.445
BRITE-PL 29 May 18:28:22 18:34:03 76° 74° (ENE) 18:39:43 437.365/2234.400
HO-68 29 May 18:28:47 18:33:56 22° 47° (NE) 18:39:04 435.675
NOAA 15 29 May 18:34:27 18:39:46 76° 256° (WSW) 18:45:08 137.62
GOMX 1 29 May 18:42:01 18:47:19 54° 70° (ENE) 18:52:27 467.674
Cubesat XI-IV 29 May 18:47:21 18:52:40 84° 253° (WSW) 18:58:03 437.490
BEESAT 3 29 May 18:48:30 18:51:58 28° 36° (NE) 18:55:25 437.485
AUBIESAT-1 29 May 18:52:46 18:55:16 17° 56° (NE) 18:57:40 437.475
CUBESAT XI-V 29 May 18:53:12 18:57:56 67° 102° (ESE) 19:02:37 437.345
LilacSat-2 29 May 18:53:52 18:57:40 73° 259° (WSW) 19:01:28 437.200
CANX-2 29 May 18:56:38 18:58:36 13° 57° (ENE) 19:00:33 2200.000
STARS 29 May 18:57:35 19:01:11 25° 297° (WNW) 19:04:47 437.465
MOZHAYETS 4 29 May 18:59:55 19:03:15 20° 300° (WNW) 19:06:34
M-CUBED/EXP-1 PRIME 29 May 19:00:44 19:03:54 23° 59° (ENE) 19:06:52 437.505
NOAA 18 29 May 19:04:12 19:09:30 52° 259° (W) 19:14:51 137.9125
Cosmos 2504 29 May 19:04:24 19:11:39 64° 285° (WNW) 19:19:26 435.465 / 435.565
AIST 2 29 May 19:08:52 19:10:14 11° 8° (N) 19:11:36 435.215
DOVE 4 29 May 19:19:45 19:24:48 59° 71° (ENE) 19:29:38 437.250
CUTE 1.7 + AOD 2 29 May 19:22:10 19:25:11 19° 61° (ENE) 19:28:13 437.475
STRAND 1 29 May 19:29:34 19:32:46 16° 88° (E) 19:35:58 437.568
YUBILEINY 29 May 19:32:40 19:38:50 21° 308° (NW) 19:45:03 435.215
CUTE-I 29 May 19:33:35 19:38:28 37° 263° (W) 19:43:25 437.470
CINEMA 3 29 May 19:34:50 19:38:46 28° 65° (ENE) 19:42:33 145.822/145.860
COMPASS 1 29 May 19:36:03 19:38:27 15° 59° (ENE) 19:40:52 437.405
AAUSAT CUBESAT 2 29 May 19:36:54 19:38:46 13° 57° (ENE) 19:40:40 437.432
RS-15 29 May 19:54:58 20:06:28 64° 322° (NW) 20:18:37 29.354- 29.394
BEESAT 2 29 May 19:55:40 19:59:38 57° 45° (NE) 20:03:34 435.950
PCSat 29 May 19:58:07 20:02:44 29° 249° (WSW) 20:07:18 145.827
O/OREOS (USA 219) 29 May 20:01:26 20:05:38 40° 251° (WSW) 20:09:49 437.305
BRITE-PL 29 May 20:08:52 20:13:03 21° 272° (W) 20:17:15 437.365/2234.400
CUBEBUG 2 29 May 20:09:31 20:12:44 21° 62° (ENE) 20:15:54 437.445
NOAA 15 29 May 20:18:15 20:20:28 12° 275° (W) 20:22:40 137.62
